Weather in Domozhirovo

Russia / Saint-Petersburg and Leningrad Oblast     60°28′10″N   33°05′18″E
temp.,
°C
wind,
m/s
gust,
m/s
humid.,
%
clouds,
%
prec.,
mm/h
press.,
hPa
HPBL,
m
20 january, thu
thu2000:00+1ssw61497100 0.2 993719
03:00+1ssw51398100 0.9 992618
06:00+1ssw51398100 0.3 990614
09:00+1ssw61291100 0.5 989577
12:00+1s51290100 0.0 989581
15:000s51298100 1.7 987714
18:000sse51298100 1.3 986803
21:000s41198100 2.2 986757
21 january, fri
fri2100:000s4993100 0.5 988474
03:00−1s3890100 0.6 990459
06:00−7sse259789 0.0 99264
09:00−9se249866 0.1 99553
12:00−9ese259777 0.0 99794
15:00−6ene3695100 0.0 998149
18:00−6ene3796100 0.0 1001120
21:00−6ne3895100 0.0 1003175
22 january, sat
sat2200:00−5ne41293100 0.0 1005405
03:00−4ne51294100 0.1 1006677
06:00−5ne499490 0.4 1009513
09:00−9ne379577 0.5 1012152
12:00−9ne379510 0.0 1014206
15:00−9ne369591 0.0 1015229
18:00−10ne279682 0.0 1017162
21:00−10ene259692 0.3 1019180
23 january, sun
sun2300:00−16e239830 0.0 102240
03:00−20e2110011 0.0 102411
06:00−21e1110025 0.0 102611
09:00−20ese2310024 0.0 102840
12:00−15se129719 0.0 103056
15:00−12sse119735 0.0 103012
18:00−17sse119963 0.0 10329
21:00−17sse239951 0.0 103242
24 january, mon
mon2400:00−18s229954 0.0 103330
03:00−18s259966 0.0 103275
06:00−16s379855 0.0 1031111
09:00−16sse389756 0.0 1030130
12:00−13s41294100 0.0 1028287
15:00−10s51390100 0.0 1025369
18:00−10s61588100 0.0 1023420
21:00−9s6178699 0.0 1020472